KAC777 OKKK-OLBA

Flight info

Callsign KAC777
Flight time 1h 55m
Altitude 38000
Route RALKA G795 TASMI DCT GADSI M703 KASIR DCT MODIK DCT FIRAS R655 KTN/N0459F260 R655 LEBOR
Aircraft B77W/H-SDE1E2E3FGHIJ2J3J4J5M1RWXY/LB1D1

Departure

Time 2026-04-29 02:05
Airport Kuwait International Airport (OKKK)

Arrival

Time 2026-04-29 04:00
Airport Beirut Rafic Hariri International Airport (OLBA)
Time Latitude Longitude Altitude Speed Heading
2026-04-29 01:23 29.23593 47.96734 169 ft 0 kts 336°
2026-04-29 01:55 29.23593 47.96736 169 ft 4 kts 347°
2026-04-29 01:56 29.23573 47.96747 169 ft 4 kts 328°
2026-04-29 01:56 29.23568 47.96753 169 ft 4 kts 294°
2026-04-29 01:56 29.23570 47.96787 169 ft 4 kts 235°
2026-04-29 01:56 29.23578 47.96803 169 ft 1 kts 244°
2026-04-29 01:57 29.23579 47.96805 169 ft 0 kts 244°
2026-04-29 01:59 29.23579 47.96803 169 ft 1 kts 243°
2026-04-29 01:59 29.23565 47.96772 169 ft 8 kts 243°
2026-04-29 01:59 29.23537 47.96713 168 ft 9 kts 235°
2026-04-29 01:59 29.23484 47.96662 167 ft 11 kts 204°
2026-04-29 02:00 29.23412 47.96633 167 ft 11 kts 199°
2026-04-29 02:00 29.23339 47.96605 169 ft 11 kts 194°
2026-04-29 02:00 29.23245 47.96604 169 ft 16 kts 168°
2026-04-29 02:00 29.23130 47.96661 168 ft 20 kts 139°
2026-04-29 02:01 29.23137 47.96814 170 ft 21 kts 77°
2026-04-29 02:01 29.23053 47.96932 172 ft 22 kts 154°
2026-04-29 02:01 29.22899 47.97017 172 ft 26 kts 154°
2026-04-29 02:01 29.22725 47.97109 172 ft 30 kts 156°
2026-04-29 02:02 29.22527 47.97212 172 ft 33 kts 155°
2026-04-29 02:02 29.22311 47.97327 172 ft 36 kts 153°
2026-04-29 02:02 29.22081 47.97451 171 ft 32 kts 155°
2026-04-29 02:02 29.21880 47.97557 171 ft 31 kts 155°
2026-04-29 02:03 29.21685 47.97660 172 ft 30 kts 155°
2026-04-29 02:03 29.21496 47.97761 174 ft 30 kts 155°
2026-04-29 02:03 29.21334 47.97848 175 ft 15 kts 156°
2026-04-29 02:03 29.21250 47.97809 175 ft 15 kts 244°
2026-04-29 02:04 29.21268 47.97699 175 ft 15 kts 301°
2026-04-29 02:04 29.21332 47.97605 174 ft 15 kts 319°
2026-04-29 02:04 29.21390 47.97566 174 ft 0 kts 334°
2026-04-29 02:04 29.21439 47.97539 174 ft 24 kts 335°
2026-04-29 02:05 29.21968 47.97259 172 ft 147 kts 335°
2026-04-29 02:05 29.23188 47.96614 638 ft 224 kts 337°
2026-04-29 02:05 29.24617 47.95895 2530 ft 226 kts 337°
2026-04-29 02:05 29.26101 47.95100 4019 ft 238 kts 336°
2026-04-29 02:06 29.27627 47.94278 5117 ft 248 kts 334°
2026-04-29 02:06 29.29240 47.93423 6070 ft 262 kts 333°
2026-04-29 02:06 29.30935 47.92532 7039 ft 273 kts 334°
2026-04-29 02:06 29.32800 47.91935 7886 ft 289 kts 354°
2026-04-29 02:07 29.34833 47.92172 8891 ft 300 kts 13°
2026-04-29 02:07 29.36817 47.92999 9818 ft 310 kts 20°
2026-04-29 02:07 29.38732 47.94239 10481 ft 329 kts 41°
2026-04-29 02:07 29.40119 47.96440 10759 ft 358 kts 68°
2026-04-29 02:08 29.41047 47.99234 11013 ft 389 kts 72°
2026-04-29 02:08 29.42112 48.02213 11464 ft 414 kts 67°
2026-04-29 02:08 29.43412 48.05222 12282 ft 427 kts 64°
2026-04-29 02:08 29.44840 48.08264 13135 ft 437 kts 63°
2026-04-29 02:09 29.46309 48.11338 14165 ft 441 kts 63°
2026-04-29 02:09 29.47784 48.14439 15184 ft 442 kts 61°
2026-04-29 02:09 29.49666 48.17246 15878 ft 450 kts 40°
2026-04-29 02:09 29.52288 48.19184 16773 ft 449 kts 19°
2026-04-29 02:10 29.55271 48.20100 17802 ft 441 kts
2026-04-29 02:10 29.58306 48.20042 18792 ft 433 kts 346°
2026-04-29 02:10 29.61185 48.19145 19651 ft 427 kts 329°
2026-04-29 02:10 29.63770 48.17521 20324 ft 426 kts 323°
2026-04-29 02:11 29.66341 48.15756 21027 ft 433 kts 323°
2026-04-29 02:11 29.68939 48.13966 21843 ft 437 kts 323°
2026-04-29 02:11 29.71565 48.12178 22667 ft 441 kts 323°
2026-04-29 02:11 29.74224 48.10387 23429 ft 445 kts 324°
2026-04-29 02:12 29.76911 48.08594 24146 ft 449 kts 324°
2026-04-29 02:12 29.79633 48.06785 24814 ft 454 kts 324°
2026-04-29 02:12 29.82392 48.04956 25437 ft 460 kts 323°
2026-04-29 02:12 29.85178 48.03111 26038 ft 464 kts 323°
2026-04-29 02:13 29.87992 48.01246 26630 ft 469 kts 323°
2026-04-29 02:13 29.90832 47.99361 27187 ft 473 kts 323°
2026-04-29 02:13 29.93657 47.97483 27719 ft 477 kts 322°
2026-04-29 02:13 29.96545 47.95562 28231 ft 481 kts 322°
2026-04-29 02:14 29.99401 47.93559 28715 ft 480 kts 317°
2026-04-29 02:14 30.02061 47.91237 29161 ft 478 kts 312°
2026-04-29 02:14 30.04528 47.88688 29608 ft 475 kts 308°
2026-04-29 02:14 30.06758 47.85902 30033 ft 472 kts 303°
2026-04-29 02:15 30.08885 47.83040 30542 ft 471 kts 302°
2026-04-29 02:15 30.11012 47.80160 31202 ft 466 kts 302°
2026-04-29 02:15 30.13104 47.77335 31949 ft 460 kts 301°
2026-04-29 02:15 30.15176 47.74548 32623 ft 455 kts 301°
2026-04-29 02:16 30.17237 47.71782 33199 ft 453 kts 301°
2026-04-29 02:16 30.19290 47.69032 33724 ft 450 kts 300°
2026-04-29 02:16 30.21325 47.66306 34231 ft 447 kts 300°
2026-04-29 02:16 30.23361 47.63580 34609 ft 447 kts 300°
2026-04-29 02:17 30.25388 47.60862 35023 ft 445 kts 300°
2026-04-29 02:17 30.27407 47.58152 35435 ft 444 kts 300°
2026-04-29 02:17 30.29417 47.55455 35832 ft 443 kts 300°
2026-04-29 02:17 30.31430 47.52755 36201 ft 441 kts 300°
2026-04-29 02:18 30.33428 47.50072 36607 ft 440 kts 300°
2026-04-29 02:18 30.35420 47.47393 36993 ft 438 kts 300°
2026-04-29 02:18 30.37403 47.44727 37483 ft 433 kts 300°
2026-04-29 02:18 30.39360 47.42096 37895 ft 431 kts 299°
2026-04-29 02:19 30.43277 47.36811 37881 ft 430 kts 299°
2026-04-29 02:19 30.47145 47.31598 37884 ft 424 kts 299°
2026-04-29 02:20 30.50981 47.26408 37867 ft 424 kts 299°
2026-04-29 02:20 30.54700 47.21154 37880 ft 415 kts 293°
2026-04-29 02:21 30.57642 47.15464 37886 ft 410 kts 288°
2026-04-29 02:21 30.59922 47.09420 37890 ft 410 kts 283°
2026-04-29 02:22 30.62034 47.03261 37881 ft 411 kts 283°
2026-04-29 02:22 30.64152 46.97084 37882 ft 411 kts 283°
2026-04-29 02:23 30.66272 46.90927 37865 ft 410 kts 283°
2026-04-29 02:23 30.68387 46.84796 37867 ft 408 kts 283°
2026-04-29 02:24 30.70491 46.78694 37869 ft 406 kts 282°
2026-04-29 02:25 30.73630 46.69562 37865 ft 405 kts 282°
2026-04-29 02:25 30.75715 46.63484 37864 ft 405 kts 282°
2026-04-29 02:26 30.77797 46.57401 37865 ft 405 kts 282°
2026-04-29 02:26 30.79882 46.51310 37866 ft 405 kts 282°
2026-04-29 02:27 30.81963 46.45202 37881 ft 406 kts 282°
2026-04-29 02:27 30.84041 46.39098 37863 ft 407 kts 282°
2026-04-29 02:28 30.86120 46.32975 37867 ft 407 kts 282°
2026-04-29 02:28 30.88200 46.26851 37868 ft 407 kts 282°
2026-04-29 02:29 30.90280 46.20719 37866 ft 407 kts 282°
2026-04-29 02:29 30.92355 46.14585 37867 ft 408 kts 282°
2026-04-29 02:30 30.94432 46.08419 37880 ft 409 kts 282°
2026-04-29 02:30 30.96499 46.02290 37869 ft 408 kts 282°
2026-04-29 02:31 30.98573 45.96137 37892 ft 407 kts 282°
2026-04-29 02:31 31.00639 45.89982 37901 ft 408 kts 282°
2026-04-29 02:32 31.02703 45.83812 37899 ft 409 kts 282°
2026-04-29 02:32 31.04769 45.77628 37901 ft 410 kts 282°
2026-04-29 02:33 31.06840 45.71429 37900 ft 411 kts 282°
2026-04-29 02:33 31.08912 45.65200 37901 ft 412 kts 282°
2026-04-29 02:34 31.10984 45.58966 37899 ft 413 kts 282°
2026-04-29 02:34 31.13059 45.52726 37897 ft 412 kts 282°
2026-04-29 02:35 31.15129 45.46485 37897 ft 412 kts 282°
2026-04-29 02:35 31.17193 45.40247 37895 ft 412 kts 282°
2026-04-29 02:36 31.19234 45.34057 37900 ft 411 kts 282°
2026-04-29 02:36 31.21285 45.27830 37901 ft 411 kts 282°
2026-04-29 02:37 31.23333 45.21600 37899 ft 411 kts 282°
2026-04-29 02:37 31.25379 45.15360 37898 ft 411 kts 282°
2026-04-29 02:38 31.27424 45.09123 37895 ft 412 kts 282°
2026-04-29 02:38 31.29469 45.02861 37897 ft 413 kts 282°
2026-04-29 02:39 31.31520 44.96578 37900 ft 414 kts 282°
2026-04-29 02:39 31.33568 44.90281 37899 ft 415 kts 282°
2026-04-29 02:40 31.35622 44.83969 37892 ft 416 kts 282°
2026-04-29 02:40 31.37676 44.77645 37889 ft 416 kts 282°
2026-04-29 02:41 31.39726 44.71311 37885 ft 416 kts 282°
2026-04-29 02:41 31.41769 44.64979 37889 ft 416 kts 282°
2026-04-29 02:42 31.43811 44.58645 37889 ft 416 kts 282°
2026-04-29 02:42 31.45840 44.52346 37887 ft 416 kts 282°
2026-04-29 02:43 31.47880 44.45998 37890 ft 417 kts 282°
2026-04-29 02:43 31.49916 44.39644 37890 ft 417 kts 282°
2026-04-29 02:44 31.51956 44.33272 37888 ft 418 kts 282°
2026-04-29 02:44 31.53651 44.27963 37890 ft 419 kts 282°
2026-04-29 02:45 31.55690 44.21562 37889 ft 420 kts 282°
2026-04-29 02:45 31.57735 44.15143 37886 ft 420 kts 282°
2026-04-29 02:46 31.59779 44.08717 37890 ft 421 kts 282°
2026-04-29 02:46 31.61818 44.02276 37894 ft 421 kts 282°
2026-04-29 02:47 31.63856 43.95834 37886 ft 421 kts 282°
2026-04-29 02:47 31.65892 43.89387 37885 ft 421 kts 282°
2026-04-29 02:48 31.67923 43.82933 37890 ft 421 kts 282°
2026-04-29 02:48 31.69950 43.76474 37890 ft 422 kts 282°
2026-04-29 02:49 31.71979 43.70006 37887 ft 422 kts 282°
2026-04-29 02:49 31.74008 43.63530 37889 ft 422 kts 282°
2026-04-29 02:50 31.76017 43.57099 37886 ft 422 kts 282°
2026-04-29 02:50 31.78034 43.50626 37883 ft 422 kts 282°
2026-04-29 02:51 31.80051 43.44147 37893 ft 422 kts 282°
2026-04-29 02:51 31.82059 43.37675 37895 ft 421 kts 281°
2026-04-29 02:52 31.84066 43.31200 37897 ft 421 kts 281°
2026-04-29 02:52 31.86067 43.24724 37902 ft 421 kts 281°
2026-04-29 02:53 31.88062 43.18252 37898 ft 421 kts 281°
2026-04-29 02:53 31.90050 43.11783 37894 ft 420 kts 281°
2026-04-29 02:54 31.92035 43.05320 37896 ft 420 kts 281°
2026-04-29 02:54 31.94021 42.98833 37898 ft 421 kts 281°
2026-04-29 02:55 31.96007 42.92336 37903 ft 422 kts 281°
2026-04-29 02:55 31.97996 42.85813 37907 ft 423 kts 281°
2026-04-29 02:56 31.99984 42.79279 37909 ft 424 kts 281°
2026-04-29 02:56 32.01976 42.72718 37896 ft 427 kts 281°
2026-04-29 02:57 32.03967 42.66153 37905 ft 429 kts 281°
2026-04-29 02:57 32.05975 42.59511 37900 ft 430 kts 282°
2026-04-29 02:58 32.07982 42.52861 37902 ft 431 kts 281°
2026-04-29 02:58 32.09990 42.46195 37910 ft 431 kts 281°
2026-04-29 02:59 32.11998 42.39515 37905 ft 432 kts 281°
2026-04-29 02:59 32.13999 42.32835 37907 ft 431 kts 281°
2026-04-29 03:00 32.15992 42.26169 37907 ft 430 kts 281°
2026-04-29 03:00 32.17977 42.19517 37908 ft 429 kts 281°
2026-04-29 03:01 32.19952 42.12875 37907 ft 428 kts 281°
2026-04-29 03:01 32.21918 42.06249 37905 ft 427 kts 281°
2026-04-29 03:02 32.23870 41.99664 37908 ft 427 kts 281°
2026-04-29 03:02 32.25827 41.93042 37907 ft 427 kts 281°
2026-04-29 03:03 32.27783 41.86411 37921 ft 427 kts 281°
2026-04-29 03:03 32.29729 41.79805 37930 ft 425 kts 281°
2026-04-29 03:04 32.31663 41.73217 37934 ft 423 kts 281°
2026-04-29 03:04 32.33588 41.66651 37939 ft 422 kts 281°
2026-04-29 03:05 32.35503 41.60096 37946 ft 422 kts 281°
2026-04-29 03:05 32.37417 41.53530 37953 ft 423 kts 281°
2026-04-29 03:06 32.39333 41.46946 37944 ft 424 kts 281°
2026-04-29 03:06 32.41239 41.40381 37949 ft 425 kts 281°
2026-04-29 03:07 32.43158 41.33760 37948 ft 426 kts 281°
2026-04-29 03:07 32.45090 41.27078 37942 ft 427 kts 281°
2026-04-29 03:08 32.46999 41.20462 37942 ft 428 kts 281°
2026-04-29 03:08 32.48921 41.13784 37954 ft 429 kts 281°
2026-04-29 03:09 32.50846 41.07083 37958 ft 430 kts 281°
2026-04-29 03:09 32.52769 41.00375 37977 ft 430 kts 281°
2026-04-29 03:10 32.54691 40.93652 37965 ft 431 kts 281°
2026-04-29 03:10 32.56612 40.86918 37959 ft 431 kts 281°
2026-04-29 03:11 32.58531 40.80178 37978 ft 431 kts 281°
2026-04-29 03:11 32.60432 40.73481 37969 ft 431 kts 281°
2026-04-29 03:12 32.62340 40.66743 37961 ft 431 kts 281°
2026-04-29 03:12 32.64245 40.60001 37966 ft 431 kts 281°
2026-04-29 03:13 32.66300 40.53304 37979 ft 436 kts 286°
2026-04-29 03:13 32.69204 40.46894 37991 ft 445 kts 294°
2026-04-29 03:14 32.72581 40.40724 37985 ft 446 kts 294°
2026-04-29 03:14 32.75972 40.34554 37979 ft 446 kts 294°
2026-04-29 03:15 32.79341 40.28374 37985 ft 445 kts 294°
2026-04-29 03:15 32.82692 40.22187 37982 ft 445 kts 294°
2026-04-29 03:16 32.86036 40.15996 37979 ft 445 kts 294°
2026-04-29 03:16 32.89376 40.09804 37980 ft 445 kts 294°
2026-04-29 03:17 32.92715 40.03602 37978 ft 445 kts 294°
2026-04-29 03:17 32.96058 39.97386 37982 ft 446 kts 295°
2026-04-29 03:18 32.99403 39.91153 37982 ft 447 kts 295°
2026-04-29 03:18 33.02746 39.84913 37982 ft 448 kts 295°
2026-04-29 03:19 33.06098 39.78650 37991 ft 448 kts 295°
2026-04-29 03:19 33.09454 39.72370 37992 ft 449 kts 295°
2026-04-29 03:20 33.12783 39.66124 37990 ft 450 kts 295°
2026-04-29 03:20 33.16141 39.59816 37992 ft 450 kts 295°
2026-04-29 03:21 33.19495 39.53502 37992 ft 451 kts 295°
2026-04-29 03:21 33.22850 39.47178 37990 ft 451 kts 295°
2026-04-29 03:22 33.26202 39.40847 37992 ft 451 kts 295°
2026-04-29 03:22 33.29551 39.34511 37991 ft 451 kts 295°
2026-04-29 03:23 33.32897 39.28169 37992 ft 451 kts 295°
2026-04-29 03:23 33.36219 39.21864 37989 ft 451 kts 295°
2026-04-29 03:24 33.39553 39.15526 37989 ft 450 kts 295°
2026-04-29 03:24 33.42885 39.09175 37991 ft 450 kts 295°
2026-04-29 03:25 33.46204 39.02816 37989 ft 449 kts 294°
2026-04-29 03:25 33.48939 38.96172 37980 ft 443 kts 288°
2026-04-29 03:26 33.51426 38.89407 37981 ft 444 kts 288°
2026-04-29 03:26 33.53924 38.82636 37978 ft 445 kts 288°
2026-04-29 03:27 33.56444 38.75845 37987 ft 446 kts 288°
2026-04-29 03:27 33.58969 38.69044 37983 ft 447 kts 288°
2026-04-29 03:28 33.61494 38.62226 37997 ft 447 kts 288°
2026-04-29 03:28 33.64017 38.55402 38001 ft 448 kts 289°
2026-04-29 03:29 33.66541 38.48560 38001 ft 449 kts 289°
2026-04-29 03:29 33.69066 38.41698 38000 ft 449 kts 289°
2026-04-29 03:30 33.71589 38.34829 37999 ft 450 kts 289°
2026-04-29 03:30 33.74112 38.27948 38001 ft 450 kts 289°
2026-04-29 03:31 33.77894 38.17599 38000 ft 451 kts 289°
2026-04-29 03:31 33.79988 38.11860 38000 ft 451 kts 289°
2026-04-29 03:32 33.82908 38.03833 38010 ft 451 kts 289°
2026-04-29 03:32 33.85420 37.96916 38006 ft 450 kts 289°
2026-04-29 03:33 33.87630 37.91182 38015 ft 453 kts 294°
2026-04-29 03:33 33.90962 37.84696 38020 ft 456 kts 297°
2026-04-29 03:34 33.94373 37.78268 38009 ft 457 kts 297°
2026-04-29 03:34 33.97770 37.71801 38007 ft 456 kts 297°
2026-04-29 03:35 34.01153 37.65318 38007 ft 457 kts 297°
2026-04-29 03:35 34.04506 37.58865 38012 ft 457 kts 297°
2026-04-29 03:36 34.07881 37.52365 38008 ft 457 kts 297°
2026-04-29 03:36 34.11252 37.45860 38017 ft 457 kts 297°
2026-04-29 03:37 34.14616 37.39354 38010 ft 457 kts 297°
2026-04-29 03:37 34.17979 37.32847 38008 ft 457 kts 297°
2026-04-29 03:38 34.20672 37.26006 38014 ft 448 kts 284°
2026-04-29 03:38 34.21521 37.22389 37781 ft 450 kts 280°
2026-04-29 03:38 34.22020 37.18638 37071 ft 448 kts 273°
2026-04-29 03:39 34.22300 37.14969 36440 ft 430 kts 272°
2026-04-29 03:39 34.22553 37.11461 35739 ft 418 kts 272°
2026-04-29 03:39 34.22807 37.07908 34755 ft 428 kts 273°
2026-04-29 03:39 34.23073 37.04275 33830 ft 441 kts 273°
2026-04-29 03:40 34.23354 37.00517 32909 ft 456 kts 274°
2026-04-29 03:40 34.23649 36.96662 31979 ft 462 kts 274°
2026-04-29 03:40 34.23951 36.92802 31037 ft 462 kts 274°
2026-04-29 03:40 34.24250 36.88993 30199 ft 460 kts 275°
2026-04-29 03:41 34.24550 36.85168 29466 ft 455 kts 275°
2026-04-29 03:41 34.24843 36.81383 28741 ft 450 kts 275°
2026-04-29 03:41 34.25132 36.77631 28026 ft 446 kts 275°
2026-04-29 03:41 34.25417 36.73918 27319 ft 442 kts 275°
2026-04-29 03:42 34.25699 36.70230 26566 ft 439 kts 275°
2026-04-29 03:42 34.25976 36.66569 25858 ft 436 kts 275°
2026-04-29 03:42 34.26251 36.62937 25154 ft 432 kts 275°
2026-04-29 03:42 34.26523 36.59332 24468 ft 429 kts 275°
2026-04-29 03:43 34.26768 36.55748 23787 ft 426 kts 274°
2026-04-29 03:43 34.26920 36.52194 23117 ft 422 kts 272°
2026-04-29 03:43 34.27032 36.48656 22455 ft 419 kts 272°
2026-04-29 03:43 34.27136 36.45155 21807 ft 415 kts 272°
2026-04-29 03:44 34.27245 36.41680 21155 ft 412 kts 272°
2026-04-29 03:44 34.27361 36.38235 20515 ft 409 kts 272°
2026-04-29 03:44 34.27481 36.34812 19885 ft 405 kts 272°
2026-04-29 03:44 34.27603 36.31426 19249 ft 402 kts 272°
2026-04-29 03:45 34.27724 36.28064 18630 ft 398 kts 272°
2026-04-29 03:45 34.27844 36.24736 17992 ft 395 kts 272°
2026-04-29 03:45 34.27961 36.21439 17379 ft 391 kts 272°
2026-04-29 03:45 34.28077 36.18164 16766 ft 387 kts 272°
2026-04-29 03:46 34.28190 36.14931 16151 ft 384 kts 272°
2026-04-29 03:46 34.28303 36.11719 15539 ft 381 kts 272°
2026-04-29 03:46 34.28311 36.11483 15506 ft 380 kts 272°
2026-04-29 03:46 34.28401 36.08889 15019 ft 378 kts 272°
2026-04-29 03:47 34.28511 36.05727 14423 ft 375 kts 272°
2026-04-29 03:47 34.28617 36.02626 13823 ft 373 kts 272°
2026-04-29 03:47 34.28722 35.99502 13240 ft 371 kts 272°
2026-04-29 03:47 34.28852 35.96397 12646 ft 369 kts 273°
2026-04-29 03:48 34.28996 35.93306 12066 ft 367 kts 273°
2026-04-29 03:48 34.29142 35.90232 11487 ft 365 kts 273°
2026-04-29 03:48 34.29285 35.87168 10924 ft 362 kts 273°
2026-04-29 03:48 34.29422 35.84186 10792 ft 348 kts 273°
2026-04-29 03:49 34.29551 35.81318 10622 ft 336 kts 273°
2026-04-29 03:49 34.29675 35.78544 10475 ft 325 kts 273°
2026-04-29 03:49 34.29793 35.75860 10336 ft 314 kts 273°
2026-04-29 03:49 34.29907 35.73266 10205 ft 303 kts 273°
2026-04-29 03:50 34.29981 35.70771 10088 ft 289 kts 266°
2026-04-29 03:50 34.29471 35.68487 9918 ft 278 kts 244°
2026-04-29 03:50 34.28580 35.66421 9604 ft 277 kts 243°
2026-04-29 03:50 34.27690 35.64356 9282 ft 276 kts 243°
2026-04-29 03:51 34.26808 35.62297 8969 ft 276 kts 243°
2026-04-29 03:51 34.25929 35.60239 8640 ft 275 kts 243°
2026-04-29 03:51 34.25054 35.58189 8313 ft 274 kts 243°
2026-04-29 03:51 34.24183 35.56142 7997 ft 274 kts 243°
2026-04-29 03:52 34.23314 35.54100 7671 ft 273 kts 243°
2026-04-29 03:52 34.22448 35.52061 7357 ft 272 kts 243°
2026-04-29 03:52 34.21582 35.50025 7035 ft 272 kts 243°
2026-04-29 03:52 34.20720 35.47997 6706 ft 271 kts 243°
2026-04-29 03:53 34.19858 35.45972 6403 ft 270 kts 243°
2026-04-29 03:53 34.19000 35.43956 6077 ft 269 kts 243°
2026-04-29 03:53 34.18145 35.41954 5766 ft 267 kts 242°
2026-04-29 03:53 34.17008 35.40240 5429 ft 262 kts 216°
2026-04-29 03:54 34.15338 35.39438 5146 ft 260 kts 185°
2026-04-29 03:54 34.13545 35.39627 4873 ft 259 kts 168°
2026-04-29 03:54 34.11790 35.40123 4569 ft 259 kts 167°
2026-04-29 03:54 34.10036 35.40628 4254 ft 259 kts 167°
2026-04-29 03:55 34.08298 35.41122 4110 ft 253 kts 167°
2026-04-29 03:55 34.06641 35.41587 4045 ft 242 kts 167°
2026-04-29 03:55 34.05035 35.42036 3986 ft 230 kts 167°
2026-04-29 03:55 34.03519 35.42461 3922 ft 220 kts 168°
2026-04-29 03:56 34.02018 35.42878 3612 ft 221 kts 168°
2026-04-29 03:56 34.00523 35.43295 3351 ft 220 kts 167°
2026-04-29 03:56 33.99042 35.43709 3093 ft 217 kts 168°
2026-04-29 03:56 33.97579 35.44116 2778 ft 213 kts 168°
2026-04-29 03:57 33.96145 35.44515 2478 ft 209 kts 168°
2026-04-29 03:57 33.94747 35.44905 2200 ft 204 kts 168°
2026-04-29 03:57 33.93389 35.45282 1929 ft 198 kts 168°
2026-04-29 03:57 33.92058 35.45653 1671 ft 193 kts 168°
2026-04-29 03:58 33.90783 35.46007 1427 ft 180 kts 168°
2026-04-29 03:58 33.89619 35.46332 1179 ft 162 kts 168°
2026-04-29 03:58 33.88595 35.46617 991 ft 143 kts 168°
2026-04-29 03:58 33.87635 35.46882 805 ft 141 kts 168°
2026-04-29 03:59 33.86675 35.47149 629 ft 142 kts 168°
2026-04-29 03:59 33.85719 35.47414 414 ft 140 kts 168°
2026-04-29 03:59 33.84778 35.47681 242 ft 139 kts 167°
2026-04-29 03:59 33.83848 35.47938 71 ft 138 kts 168°
2026-04-29 04:00 33.82915 35.48188 24 ft 128 kts 167°
2026-04-29 04:00 33.82146 35.48408 19 ft 93 kts 167°
2026-04-29 04:00 33.81673 35.48537 19 ft 67 kts 167°
2026-04-29 04:00 33.81349 35.48629 24 ft 34 kts 166°
2026-04-29 04:01 33.81210 35.48719 19 ft 20 kts 105°
2026-04-29 04:01 33.81287 35.48844 18 ft 21 kts 36°
2026-04-29 04:01 33.81407 35.48946 17 ft 21 kts 35°
2026-04-29 04:01 33.81527 35.49049 19 ft 21 kts 36°
2026-04-29 04:02 33.81648 35.49152 20 ft 21 kts 36°
2026-04-29 04:02 33.81768 35.49255 21 ft 21 kts 35°
2026-04-29 04:02 33.81890 35.49357 20 ft 21 kts 34°
2026-04-29 04:02 33.82011 35.49458 20 ft 21 kts 35°
2026-04-29 04:03 33.82132 35.49561 20 ft 21 kts 35°
2026-04-29 04:03 33.82203 35.49582 21 ft 11 kts 333°
2026-04-29 04:03 33.82257 35.49514 20 ft 11 kts 327°
2026-04-29 04:03 33.82332 35.49532 20 ft 12 kts 31°
2026-04-29 04:04 33.82406 35.49575 21 ft 12 kts 354°
2026-04-29 04:04 33.82466 35.49543 22 ft 4 kts 330°
2026-04-29 04:04 33.82472 35.49538 21 ft 1 kts 327°
2026-04-29 04:04 33.82475 35.49536 20 ft 0 kts 327°